Other Public Products


908 
FPUS82 KCHS 151727
OPUCHS
TEST...KCHS/KSAV Gateway Observations...TEST
National Weather Service Charleston SC
1200 PM EST FRI DEC 15 2017
NOTE: "fair" indicates few or no clouds below 12,000 feet with no
significant weather and/or obstructions to visibility.
SCZ050-WAZ558-NCZ071-TXZ119-213-PAZ071-DCZ001-FLZ074-172-MI076-
NYZ176-178-MAZ016-IL014-TNZ027-NJZ106-GAZ044-MD014-151800-
...Gateway Observations for Charleston International...
  
CITY           SKY/WX    TMP DP  RH WIND       PRES   REMARKS
Chas Airport   CLOUDY    62  39  42 SW10      29.98F                  
Seattle        CLOUDY    40  36  86 S8        30.20R WCI  34          
Charlotte      CLOUDY    44  28  53 CALM      29.97F                  
Dallas DFW     MOSUNNY   50  30  46 N9        30.32F                  
Dallas Love    MOSUNNY   50  32  50 N8        30.33S                  
Philladelphia  CLOUDY    28  11  48 CALM      30.03F                  
Wash National  FLURRIES  31  16  54 N6        30.00F WCI  25          
Baltimore      FLURRIES  29  15  56 E5        30.01F WCI  24          
Miami          PTSUNNY   77  55  46 CALM      30.11F                  
Detroit        LGT SNOW  28  19  69 SW18      29.82F WCI  15          
Newark         CLOUDY    26  10  50 CALM      30.05F                  
Laguardia      CLOUDY    28  13  53 CALM      30.04F                  
J F K          CLOUDY    27  15  61 CALM      30.06F                  
Boston Logan   CLOUDY    25  10  53 S6        30.05F WCI  18          
Ft. Lauderdale PTSUNNY   75  56  51 SW9       30.09F                  
Chicago O'Hare PTSUNNY   29  13  51 NW20G31   29.92S WCI  16          
Chicago Midway PTSUNNY   30  14  51 NW17G30   29.94S WCI  18          
Houston Bush   CLOUDY    50  36  58 N10G20    30.32R                  
Houston Hobby  CLOUDY    50  35  56 NE10      30.32R                  
Nashville      CLOUDY    35  21  56 NW9       30.20S WCI  28          
Atlanta        CLOUDY    44  27  51 NW14G22   30.08R                  
$$
 
GAZ044-118-TXZ119-213-NCZ071-DCZ001-MDZ014-506-PAZ021-071-NJZ106-
NYZ176-178-MAZ106-OHZ011-021-055-MIZ076-KYZ091-ILZ014-INZ047-
MNZ060-ONZ431-151800-
...Gateway Observations for Savannah International...
  
CITY           SKY/WX    TMP DP  RH WIND       PRES   REMARKS
Savannah Arpt  CLOUDY    63  40  42 W9        30.02F                  
Atlanta        CLOUDY    44  27  51 NW14G22   30.08R                  
Charlotte      CLOUDY    44  28  53 CALM      29.97F                  
Dallas DFW     MOSUNNY   50  30  46 N9        30.32F                  
Houston Bush   CLOUDY    50  36  58 N10G20    30.32R                  
Wash National  FLURRIES  31  16  54 N6        30.00F WCI  25          
Wash Dulles    FLURRIES  29  15  56 S3        30.00F                  
Baltimore      FLURRIES  29  15  56 E5        30.01F WCI  24          
Philadelphia   CLOUDY    28  11  48 CALM      30.03F                  
Newark         CLOUDY    26  10  50 CALM      30.05F                  
Laguardia      CLOUDY    28  13  53 CALM      30.04F                  
J F K          CLOUDY    27  15  61 CALM      30.06F                  
Boston         CLOUDY    25  10  53 S6        30.05F WCI  18          
Pittsburg      CLOUDY    25  12  58 W9        29.91F WCI  15          
Akron          CLOUDY    21  11  65 SW10      29.90F WCI  10          
Cleveland      CLOUDY    24  12  60 S12       29.91F WCI  13          
Cincinnati     MOSUNNY   32  21  64 SW12G22   30.01F WCI  23          
Columbus       CLOUDY    28  16  59 W17       29.98F WCI  16          
Detroit        LGT SNOW  28  19  69 SW18      29.82F WCI  15          
Chicago O'Hare PTSUNNY   29  13  51 NW20G31   29.92S WCI  16          
Minneapolis    PTSUNNY   25  20  81 NE5       29.88S WCI  19          
Indianapolis   CLOUDY    29  19  66 SW15      30.01F WCI  18          
Toronto Canada CLOUDY    23  14  68 SW12      29.82F WCI  12          
$$